Regional Weather Roundup
Issued by NWS

Home | Current Version | Previous Version | Text Only | Print | Product List | Glossary On
Versions: 1 2 3 4 5 6 7 8 9 10 11 12 13 14 15 16 17 18 19 20 21 22 23 24 25 26 27 28 29 30 31 32 33 34 35 36 37 38 39 40 41 42 43 44 45 46 47 48 49 50
000
ASUS44 KFWD 071115
RWRTX
NORTH TEXAS HOURLY WEATHER ROUNDUP
NATIONAL WEATHER SERVICE FORT WORTH TX
500 AM CST WED DEC 07 2016

NOTE: "FAIR" INDICATES FEW OR NO CLOUDS BELOW 12,000 FEET WITH NO
SIGNIFICANT WEATHER AND/OR OBSTRUCTIONS TO VISIBILITY.

TXZ118-119-071200-
DALLAS/FORT WORTH METROPLEX

CITY           SKY/WX    TMP DP  RH WIND       PRES   REMARKS
DFW AIRPORT    PTCLDY    36  32  85 N7        30.04F WCI  30
DALLAS LOVE    PTCLDY    39  36  89 NE3       30.05F
FTW MEACHAM    CLEAR     38  31  76 NE7       30.04F WCI  33
DAL-EXECUTIVE  CLEAR     41  37  86 NE3       30.03F
FTW-ALLIANCE   PTCLDY    32  30  92 CALM      30.04F
FTW-NAS-JRB    CLEAR     40  33  76 CALM      30.05F
FTW-SPINKS     CLEAR     35  34  94 CALM      30.06F FOG
ARLINGTON      CLEAR     36  33  89 CALM      30.05F
GRAND PRAIRIE  CLEAR     39  34  82 CALM      30.06F
MESQUITE       CLEAR     42  37  83 CALM      30.05F
LANCASTER      CLEAR     43  41  92 CALM      30.05F
$$

TXZ091>094-102>105-117-120-121-131>134-071200-
NORTH CENTRAL TEXAS

CITY           SKY/WX    TMP DP  RH WIND       PRES   REMARKS
SHRMAN/DENISON CLEAR     37  32  84 CALM      30.07S
GAINESVILLE    PTCLDY    32  27  83 CALM      30.09S
BOWIE          CLOUDY    33  29  85 CALM      30.05F
BRIDGEPORT     PTCLDY    31  31 100 CALM      30.07S
DECATUR        PTCLDY    34  28  79 NE5       30.04F WCI  30
DENTON         CLEAR     32  30  92 N6        30.06F WCI  26
MCKINNEY       CLEAR     37  34  89 N5        30.06F WCI  33
BONHAM         CLOUDY    41  34  75 CALM      30.08R
GREENVILLE     CLOUDY    45  36  70 CALM      30.06F
ROCKWALL       MOCLDY    43  37  81 CALM      30.06F
TERRELL        CLOUDY    45  38  76 N3        30.06F
WAXAHACHIE     CLEAR     39  39 100 CALM      30.05F
CLEBURNE       CLEAR     39  39 100 CALM      30.06S
GRANBURY       CLEAR     36  34  93 CALM      30.06S
$$

TXZ083>090-098>101-113>116-127>130-139>142-154-155-071200-
WESTERN NORTH TEXAS

CITY           SKY/WX    TMP DP  RH WIND       PRES   REMARKS
WICHITA FALLS  CLOUDY    30  26  85 N3        30.05F
WF-KICKAPOO    CLOUDY    32  28  84 NE3       30.07F
VERNON         CLOUDY    32  24  72 NE3       30.05F
ABILENE        CLOUDY    33  31  92 SE5       30.01F WCI  29
ABILENE-DYESS  PTCLDY    33  30  87 S5        29.99F WCI  29
CISCO          CLOUDY    36  32  87 SE5       30.02S WCI  32
BRECKENRIDGE   PTCLDY    32  32  99 CALM      30.03S
GRAHAM         PTCLDY    31  31 100 CALM      30.03S
MINERAL WELLS  CLOUDY    33  30  88 CALM      30.03F
STEPHENVILLE   CLEAR     35  33  93 CALM      30.05S
COMANCHE       CLEAR     36  36 100 CALM      30.03F
BROWNWOOD      FOG       34  34 100 CALM      30.03F VSB<1/4
COLEMAN        CLOUDY    33  33  99 CALM      30.01F
$$

TXZ143>147-156>162-174-175-071200-
CENTRAL TEXAS

CITY           SKY/WX    TMP DP  RH WIND       PRES   REMARKS
WACO           CLOUDY    46  43  89 NE5       30.05F
WACO-MCGREGOR  CLOUDY    46  44  93 NE5       30.05S
HILLSBORO      CLEAR     43  40  91 E8        30.04F WCI  38
CORSICANA      CLOUDY    48  44  86 CALM      30.07S
MEXIA          CLOUDY    46  43  86 CALM      30.05S
HEARNE         CLOUDY    48  46  93 CALM      30.06S
CAMERON        CLOUDY    44  43  97 CALM      30.05F
TEMPLE         FOG       41  39  93 CALM      30.04S VSB 1/2
KILLEEN        CLEAR     38  37  99 NW3       30.02S
KILLEEN-SKYLRK CLEAR     38  38 100 CALM      30.04F
FORT HOOD      CLEAR     37  37 100 CALM      30.01S
GATESVILLE       N/A     37  37 100 CALM      30.05F
HAMILTON       CLEAR     36  36 100 NW6       30.03F FOG     WCI  31
LAMPASAS       FOG       36  35  98 CALM      30.02S VSB 3/4
$$

TXZ095>097-106>112-122>126-135>138-148>153-164>167-071200-
EAST TEXAS

CITY           SKY/WX    TMP DP  RH WIND       PRES   REMARKS
PARIS          CLOUDY    43  39  87 N6        30.07S WCI  39
SULPHUR SPRNGS CLOUDY    46  40  81 NE3       30.09S
MOUNT PLEASANT CLOUDY    47  47 100 CALM      30.08R
GILMER         FOG       46  46 100 CALM      30.06R VSB 1/2
MINEOLA        CLOUDY    46  43  87 CALM      30.06F
TYLER          CLOUDY    47  44  90 NE5       30.05R
LONGVIEW       CLOUDY    50  50 100 CALM      30.05S
MARSHALL       CLOUDY    47  46  93 CALM      30.07S
ATHENS         CLOUDY    45  43  93 NE3       30.05S
PALESTINE      CLOUDY    48  47  96 CALM      30.06S
JACKSONVILLE   FOG       46  46 100 N3        30.06S VSB 1/2
HENDERSON      CLOUDY    48  48 100 CALM      30.06R FOG
CENTER         CLOUDY    52  50  95 CALM      30.06S
NACOGDOCHES    CLOUDY    50  46  87 CALM      30.04R
LUFKIN         CLOUDY    50  48  93 CALM      30.05R
$$

SUPPLEMENTAL OBSERVATIONS (CENTRAL)

CITY           SKY/WX    TMP DP  RH WIND       PRES   REMARKS
DENISON DAM      N/A     39  30  70 E1          N/A
CADDO GRASSLND   N/A     43  34  70 N1          N/A
PAT MAYSE LAKE   N/A     41  39  93 N2          N/A
GREENVILLE       N/A     43  36  75 NE3         N/A
CEDAR HILL       N/A     36  34  93 NW1         N/A
ATHENS           N/A     46  43  87 NE1         N/A
LAKE LIMESTONE   N/A     48  43  81 NE2         N/A
MCGREGOR         N/A     45  43  93 NE1         N/A
TEMPLE           N/A     41  39  93 CALM        N/A
$$

SUPPLEMENTAL OBSERVATIONS (WEST)

CITY           SKY/WX    TMP DP  RH WIND       PRES   REMARKS
MILLERS CREEK    N/A     32  28  86 NE2         N/A
POSSUM KINGDOM   N/A     37  32  81 E3          N/A
LBJ GRASSLAND    N/A     36  28  75 NE3         N/A
GRANBURY         N/A     36  32  87 SW1         N/A
COMANCHE         N/A     36  34  93 NW2         N/A
HAMBY            N/A     32  28  86 CALM        N/A
IVIE RESERVOIR   N/A     39  36  87 E3          N/A
COLORADO BEND    N/A     36  32  87 CALM        N/A
$$

SUPPLEMENTAL OBSERVATIONS (EAST)

CITY           SKY/WX    TMP DP  RH WIND       PRES   REMARKS
CLARKSVILLE      N/A     46  43  87 E6          N/A
TEXARKANA        N/A     45  41  87 E3G14       N/A
LINDEN           N/A     48  46  93 E3          N/A
CADDO LAKE       N/A     48  46  93 E3          N/A
GILMER           N/A     46  45  93 N1          N/A
HENDERSON        N/A     48  46  93 CALM        N/A
LUFKIN           N/A     52  48  87 MISG        N/A
N SABINE NF      N/A     50  48  93 MISG        N/A
S SABINE NF      N/A     52  50  93 CALM        N/A
$$

SUPPLEMENTAL OBSERVATIONS ARE A COLLECTION OF AUTOMATED INSTRUMENTS
THAT ARE MAINTAINED BY A VARIETY OF FEDERAL AND STATE AGENCIES.
CERTAIN ELEMENTS...SUCH AS HUMIDITY VALUES AND SUSTAINED WIND
SPEEDS...MAY BE APPROXIMATED.





USA.gov is the U.S. government's official web portal to all federal, state and local government web resources and services.